Showing default

KUIPER-00010, 63726

Orbit data source: Space-Track

KUIPER-00010, 63726 is a payload satellite owned by Kuiper Systems (US) in LEO that was launched on Mon, 28 Apr 2025 UTC via an ATLAS V 551 launch vehicle from the Air Force Eastern Test Range (AFETR). Payload-class satellites include a variety of spacecraft equipped with specific instruments for various scientific and technological missions. These include communications satellites like Starlink; space stations such as the ISS; scientific satellites like the Hubble; Earth observation satellites from companies like Planet Labs, Umbra, and HawkEye 360; GPS; miniature CubeSats for education and research; and military/defense satellites.

Loading next visibility...
Identifier
63726, 2025-088C
Orbit
LEO
Country
Flag of USUS
Related business
Manufacturer
Kuiper Systems
Mission
Operational Commercial Communications
Bus & Motor
KUIPER, Unknown motor
Mass
~490 kg wet, ~490 kg dry
Launch date (UTC)
2025-04-28 (8 months ago)
Launch vehicle
ATLAS V 551
Launch site
Air Force Eastern Test Range (AFETR)
Object type
Payload
Rocket body
Debris
Shape & HBR
Box + 2 Pan, 3.4 m
Radar Cross Section
2.326 m², Large (>1 m²)

Expand to show TLE details & history
Last TLE update: 1 day ago

TLE from 1 day ago
0 KUIPER-00010
1 63726U 25088C   25348.47529183  .00003124  00000-0  43353-3 0  9999
2 63726  51.8997  99.7989 0011774 215.2989 144.7195 14.80416780 35112
Epoch: 2025-12-14T11:24Z
TLE epoch observation values (Epoch: 2025-12-14T11:24:25.214Z)
Latitude
Longitude
-154.69383°
Altitude
635.493 km
Speed
7.538 km/s
True Right ascension
06h 39m 11s
True Declination
0° 00' 00"
Sunlit
Object was in full shadow at epoch
Visualization orbit readout
Latitude
Unknown
Longitude
Unknown
Altitude
Unknown
Speed
Unknown
Apparent Right ascension
Unknown
Apparent Declination
Unknown
Sunlit
N/A
Visualization observer readout
Local Sidereal Time
13:23:43
Azimuth
Unknown
Elevation
Unknown
Doppler factor
Unknown
Orbital elements
Apogee altitude
636.71 km
Perigee altitude
620.211 km
Semi-major axis
7,006.597 km
Eccentricity
0.00118
Inclination
51.8997°
RAAN
99.7989°
Arg. of periapsis
215.2989°
True anomaly
144.79733°
Mean anomaly
144.7195°
Eccentric anomaly
144.75843°
Mean motion
3.70069 °/min
Orbital period
97.28 mins
BSTAR
0.00043353
Loading maneuver chart data...
Computing Atmospheric mass density...
Loading historical data...
Loading historical data...
Loading historical data...
Loading historical data...
Loading historical data...
Loading historical data...
Loading historical data...

Documentation

Showing up to 5 results
|